EW3517 Weather Reports


Display with metric or nautical units.
time (UTC)temp
F
wind
direction
speed
MPH
gust
MPH
rain 1hr
in
rain 24hr
in
rain mn
in
humidity
%
barometer
mb
20240526211555 90 282 4.0 14.0 0.00 0.01 0.00 41 1000.7
20240526210043 90 360 7.0 16.0 0.00 0.01 0.00 42 1000.8
20240526204539 90 360 6.0 13.0 0.00 0.01 0.00 46 1000.7
20240526203038 89 42 4.0 17.0 0.00 0.01 0.00 47 1000.6
20240526201537 89 5 5.0 16.0 0.00 0.01 0.00 48 1000.6
20240526200031 89 334 3.0 13.0 0.00 0.01 0.00 50 1000.5
20240526194532 89 360 7.0 15.0 0.00 0.01 0.00 49 1000.4
20240526193029 88 249 4.0 15.0 0.00 0.01 0.00 50 1000.3
20240526191534 88 279 7.0 13.0 0.00 0.01 0.00 47 1000.2
20240526190040 87 277 6.0 16.0 0.00 0.01 0.00 49 1000.2
20240526184525 87 9 4.0 14.0 0.00 0.01 0.00 51 1000.1
20240526183024 87 269 4.0 14.0 0.00 0.01 0.00 49 1000.1
20240526181514 87 282 8.0 16.0 0.00 0.01 0.00 49 999.9
20240526180011 86 279 8.0 15.0 0.00 0.01 0.00 49 999.8
20240526174510 86 279 5.0 12.0 0.00 0.01 0.00 51 999.6
20240526173005 85 281 6.0 13.0 0.00 0.01 0.00 51 999.6
20240526171504 85 269 7.0 10.0 0.00 0.01 0.00 52 999.3
20240526170112 85 290 6.0 13.0 0.00 0.01 0.00 51 999.1
20240526164658 85 265 5.0 13.0 0.00 0.01 0.00 52 999.0
20240526163059 85 334 3.0 10.0 0.00 0.01 0.00 52 998.6
20240526161554 85 284 4.0 11.0 0.00 0.01 0.00 54 998.4
20240526160050 84 288 6.0 10.0 0.00 0.01 0.00 56 998.2
20240526154549 83 290 5.0 9.0 0.00 0.01 0.00 62 998.1
20240526153045 83 280 3.0 12.0 0.00 0.01 0.00 58 998.1
20240526151543 83 284 4.0 12.0 0.00 0.01 0.00 64 998.1
20240526150042 82 282 5.0 13.0 0.00 0.01 0.00 66 997.9
20240526144540 82 283 4.0 11.0 0.00 0.01 0.00 69 997.7
20240526143047 81 230 5.0 12.0 0.00 0.01 0.00 69 997.7
20240526141531 81 275 4.0 11.0 0.00 0.01 0.00 70 997.4
20240526140029 81 282 4.0 10.0 0.00 0.01 0.00 71 997.3
20240526134528 80 221 3.0 11.0 0.00 0.01 0.00 72 997.2
20240526133026 79 294 4.0 9.0 0.00 0.01 0.00 75 996.9
20240526131525 79 261 5.0 14.0 0.00 0.01 0.00 76 996.4
20240526130032 78 190 3.0 12.0 0.00 0.01 0.00 78 996.2
20240526124524 78 279 5.0 11.0 0.00 0.01 0.00 79 996.2
20240526123023 77 243 2.0 11.0 0.00 0.01 0.00 81 996.0
20240526121522 77 205 2.0 13.0 0.00 0.01 0.00 81 995.9
20240526120021 77 286 4.0 11.0 0.00 0.01 0.00 81 996.3
20240526114519 77 123 3.0 12.0 0.00 0.01 0.00 80 995.8
20240526113017 77 260 5.0 13.0 0.00 0.01 0.00 80 995.7
20240526111515 77 201 3.0 15.0 0.00 0.01 0.00 80 995.6
20240526110015 77 182 3.0 13.0 0.00 0.01 0.00 80 995.4
20240526104514 77 11 3.0 11.0 0.00 0.01 0.00 81 995.2
20240526103012 77 254 5.0 12.0 0.00 0.01 0.00 81 995.2
20240526101515 77 144 4.0 12.0 0.00 0.01 0.00 80 995.1
20240526100011 76 331 5.0 15.0 0.00 0.01 0.00 80 995.0
20240526094509 76 29 4.0 15.0 0.00 0.01 0.00 78 994.8
20240526093007 77 230 5.0 16.0 0.00 0.01 0.00 77 994.9
20240526091505 77 246 4.0 20.0 0.00 0.01 0.00 76 995.0
20240526090002 77 161 7.0 18.0 0.00 0.01 0.00 75 995.0
20240526084600 77 75 3.0 16.0 0.00 0.01 0.00 74 995.2
20240526083058 78 178 8.0 25.0 0.00 0.01 0.00 73 995.2
20240526081606 78 187 5.0 15.0 0.00 0.01 0.00 72 995.2
20240526080052 79 124 4.0 19.0 0.00 0.01 0.00 72 995.4
20240526074551 79 55 7.0 19.0 0.00 0.01 0.00 71 995.7
20240526073055 80 163 5.0 19.0 0.00 0.01 0.00 73 995.9
20240526071548 80 171 9.0 16.0 0.00 0.01 0.00 75 996.0
20240526070039 80 179 5.0 20.0 0.00 0.01 0.00 78 996.2
20240526064537 80 243 6.0 19.0 0.00 0.01 0.00 81 996.3
20240526063037 80 169 5.0 14.0 0.00 0.01 0.00 82 996.4
20240526061534 80 311 5.0 14.0 0.00 0.01 0.00 83 996.7
20240526060033 80 116 6.0 15.0 0.00 0.01 0.00 84 996.8
20240526054529 80 144 4.0 17.0 0.00 0.01 0.00 83 997.0
20240526053040 80 177 6.0 14.0 0.00 0.01 0.00 83 997.2
20240526051526 80 158 6.0 17.0 0.00 0.01 0.00 81 997.3
20240526050025 80 126 3.0 18.0 0.00 0.01 0.00 79 997.3
20240526044521 80 167 7.0 14.0 0.00 0.01 0.01 77 997.4
20240526043022 80 142 7.0 20.0 0.00 0.01 0.01 74 997.7
20240526041519 81 109 6.0 18.0 0.00 0.01 0.01 71 997.8
20240526040019 81 205 8.0 19.0 0.00 0.01 0.01 68 997.7
20240526034517 81 311 5.0 18.0 0.00 0.01 0.01 68 997.6
20240526033026 81 146 6.0 17.0 0.00 0.01 0.01 71 997.5
20240526031519 80 249 4.0 20.0 0.00 0.01 0.01 76 997.5
20240526030015 80 151 8.0 14.0 0.00 0.01 0.01 79 997.4
20240526024515 80 55 9.0 21.0 0.00 0.01 0.01 81 997.3
20240526023013 80 166 7.0 17.0 0.00 0.01 0.01 81 997.5
20240526021513 80 223 7.0 20.0 0.00 0.01 0.01 80 997.5
20240526020013 80 130 7.0 18.0 0.00 0.01 0.01 80 997.3
20240526014519 80 245 6.0 16.0 0.00 0.01 0.01 80 997.3
20240526013013 80 161 8.0 19.0 0.00 0.01 0.01 81 996.8
20240526011512 80 135 9.0 17.0 0.00 0.01 0.01 80 996.4
20240526010009 81 171 9.0 15.0 0.01 0.01 0.01 79 996.5
20240526004505 81 163 7.0 15.0 0.01 0.01 0.01 79 997.0
20240526003004 80 171 8.0 16.0 0.01 0.01 0.01 79 997.4
20240526001554 80 142 4.0 21.0 0.01 0.01 0.01 77 998.0
20240526000053 82 180 7.0 22.0 0.00 0.00 0.00 76 998.2
20240525234555 82 340 6.0 25.0 0.00 0.00 0.00 77 998.2
20240525233056 83 76 9.0 17.0 0.00 0.00 0.00 76 998.6
20240525231549 83 286 5.0 13.0 0.00 0.00 0.00 75 998.8
20240525230102 84 150 9.0 19.0 0.00 0.00 0.00 73 999.4
20240525224557 84 175 4.0 13.0 0.00 0.00 0.00 73 999.6
20240525223044 85 205 6.0 16.0 0.00 0.00 0.00 70 999.6
20240525221547 86 152 8.0 15.0 0.00 0.00 0.00 69 999.7
20240525220042 87 84 8.0 16.0 0.00 0.00 0.00 66 999.9
20240525214541 87 223 5.0 12.0 0.00 0.00 0.00 66 999.3
20240525213039 87 159 5.0 14.0 0.00 0.00 0.00 65 999.6